THORAD DELTA 1 DEB, 42606

Orbit data source: Space-Track

THORAD DELTA 1 DEB, 42606 is space debris in SSO originally from a launch on Fri, 15 Nov 1974 UTC launched from the Air Force Western Test Range (AFWTR). Debris objects in space refer to the collection of defunct objects orbiting the Earth. Examples of debris include non-operational satellites, rocket bodies, and fragments generated from explosions, collisions, or faulty payload assembly.

Loading next visibility...
Identifier
42606, 1974-089FX
Orbit
SSO
Country
Flag of USUS
Related business
Manufacturer
Unknown
Mission
Spacecraft
Bus & Motor
Unknown
Mass
Unknown
Launch date (UTC)
1974-11-15 (51 years ago)
Launch vehicle
Unknown
Launch site
Air Force Western Test Range (AFWTR)
Object type
Payload
Rocket body
Debris
Shape & HBR
Unknown shape, 0.1 m
Radar Cross Section
Small (<0.1 m²)

Expand to show TLE details & history
Last TLE update: 6 days ago

TLE from 6 days ago
0 THORAD DELTA 1 DEB
1 42606U 74089FX  26066.54365604  .00000295  00000-0  15657-2 0  9991
2 42606 102.1392 341.7943 0182227 139.8448  33.7340 12.72458210559526
Epoch: 2026-03-07T13:02Z
TLE epoch observation values (Epoch: 2026-03-07T13:02:51.881Z)
Latitude
5.04436°
Longitude
161.89675°
Altitude
1,257.364 km
Speed
7.281 km/s
True Right ascension
10h 51m 30s
True Declination
5° 00' 59"
Sunlit
Object was in full shadow at epoch
Visualization orbit readout
Latitude
Unknown
Longitude
Unknown
Altitude
Unknown
Speed
Unknown
Apparent Right ascension
Unknown
Apparent Declination
Unknown
Sunlit
N/A
Visualization observer readout
Local Sidereal Time
12:08:27
Azimuth
Unknown
Elevation
Unknown
Doppler factor
Unknown
Orbital elements
Apogee altitude
1,510.665 km
Perigee altitude
1,228.3 km
Semi-major axis
7,747.619 km
Eccentricity
0.01822
Inclination
102.1392°
RAAN
341.7943°
Arg. of periapsis
139.8448°
True anomaly
34.91593°
Mean anomaly
33.734°
Eccentric anomaly
34.32271°
Mean motion
3.18266 °/min
Orbital period
113.11 mins
BSTAR
0.0015657

Documentation

Showing up to 5 results
|